Regional Weather Roundup
Issued by NWS

Home | Current Version | Previous Version | Graphics & Text | Print | Product List | Glossary On
Versions: 1 2 3 4 5 6 7 8 9 10 11 12 13 14 15 16 17 18 19 20 21 22 23 24 25 26 27 28 29 30 31 32 33 34 35 36 37 38 39 40 41 42 43 44 45 46 47 48 49 50
000
ASUS45 KSLC 051210
RWRUT

UTAH REGIONAL WEATHER ROUNDUP
NATIONAL WEATHER SERVICE SALT LAKE CITY UT
600 AM MDT SUN JUL 05 2015

UTZ001>011-023>025-051300-

NORTHERN UTAH

CITY           SKY/WX    TMP DP  RH WIND       PRES   REMARKS
BRIGHAM CITY   CLOUDY    73  59  60 CALM      29.99R
HILL AFB       CLOUDY    70  59  68 E12       30.01S
LOGAN          LGT RAIN  73  58  59 W9        30.00R
OGDEN          CLOUDY    72  63  73 E6        29.99S
PROVO AIRPORT  CLOUDY    75  54  46 S13       30.02R
SALT LAKE CITY CLOUDY    78  59  51 CALM      29.97R
VERNAL         CLOUDY    70  54  56 SW6       30.10R
WENDOVER       CLOUDY    79  50  36 NW14      29.98R
HEBER CITY     CLOUDY    64  55  72 CALM      30.09R
WEST JORDAN    CLOUDY    75  54  46 S7        30.01R

$$

UTZ012>022-026-027-051300-

SOUTHERN/CENTRAL UTAH

CITY           SKY/WX    TMP DP  RH WIND       PRES   REMARKS
BLANDING       CLOUDY    62  60  94 NE5       30.23S
BRYCE CANYON   CLOUDY    58  52  80 NE5       30.27S
CEDAR CITY     PTCLDY    67  47  48 SE8       30.12R
DELTA          CLOUDY    73  52  46 S9        30.03R
HANKSVILLE     CLOUDY    64  63  94 N3        30.10F
MILFORD        MOCLDY    72  48  42 S13       30.05R
MOAB/CYNLANDS  PTCLDY    66  64  93 NW3       30.08S
PRICE          CLOUDY    66  55  67 E6        30.16S
ST GEORGE      CLOUDY    75  46  35 SE5       29.96R
KANAB          PTCLDY    59  54  82 E3        30.15R

$$

REGIONAL REPORTS     COLORADO/ARIZONA

CITY           SKY/WX    TMP DP  RH WIND       PRES   REMARKS
CRAIG, CO      CLOUDY    61  54  77 E6        30.17R
GRAND JUNCTION CLOUDY    64  62  93 W7        30.10S
RIFLE          CLOUDY    64  57  78 CALM      30.15R
MONTROSE       CLOUDY    65  57  75 N5        30.17R
CORTEZ         CLOUDY    63  57  81 CALM      30.17R
PAGE, AZ       MOCLDY    75  52  44 CALM      30.03R
GRAND CANYON   PTCLDY    52  49  89 CALM      30.23S
KINGMAN        CLEAR     73  50  44 S8        30.00R
FLAGSTAFF      MOCLDY    58  56  93 CALM      30.27R

$$

REGIONAL REPORTS    NEVADA/IDAHO/WYOMING

CITY           SKY/WX    TMP DP  RH WIND       PRES   REMARKS
LAS VEGAS, NV  PTCLDY    88  48  25 S10       29.82R
ELY            CLEAR     52  46  80 S8        30.16R
ELKO           MOCLDY    64  55  72 W10       30.08S
POCATELLO, ID  CLEAR     73  50  44 SW12      29.96R
BURLEY         CLOUDY    75  51  43 S16       29.93R
EVANSTON, WY   CLOUDY    64  49  57 SW14      30.18R
ROCK SPRINGS   CLOUDY    68  46  45 SW14      30.12R
KEMMERER       CLOUDY    63  46  55 SW3       30.18R

$$


USA.gov is the U.S. government's official web portal to all federal, state and local government web resources and services.